DW3016 Weather Reports


Display with metric or nautical units.
time (UTC)temp
F
wind
direction
speed
MPH
gust
MPH
rain 1hr
in
rain 24hr
in
rain mn
in
humidity
%
barometer
mb
20260504120207 53 202 0.0 0.0 0.00 0.00 0.00 66 1002.0
20260504110634 51 207 0.0 1.0 0.00 0.00 0.00 67 1002.3
20260504110130 51 202 0.0 0.0 0.00 0.00 0.00 68 1002.2
20260504100557 51 207 0.0 1.0 0.00 0.00 0.00 64 1003.1
20260504081950 51 199 0.0 1.0 0.00 0.00 0.00 65 1004.1
20260504081448 50 196 0.0 0.0 0.00 0.00 0.00 65 1003.9
20260504080943 51 195 0.0 0.0 0.00 0.00 0.00 63 1004.2
20260504080440 51 195 0.0 0.0 0.00 0.00 0.00 63 1004.2
20260504070408 53 206 0.0 0.0 0.00 0.00 0.00 58 1005.2
20260504050253 55 195 0.0 0.0 0.00 0.00 0.00 53 1006.5
20260504045751 54 195 0.0 0.0 0.00 0.00 0.00 53 1006.4
20260504045250 55 194 0.0 0.0 0.00 0.00 0.00 52 1006.5
20260504044748 56 194 0.0 0.0 0.00 0.00 0.00 52 1006.7
20260504044245 55 194 0.0 0.0 0.00 0.00 0.00 52 1006.6
20260504043742 55 194 0.0 0.0 0.00 0.00 0.00 52 1006.5
20260504043239 56 194 0.0 0.0 0.00 0.00 0.00 51 1006.7
20260504042737 56 195 0.0 0.0 0.00 0.00 0.00 51 1006.8
20260504042233 57 195 0.0 0.0 0.00 0.00 0.00 50 1006.9
20260504041729 57 195 0.0 0.0 0.00 0.00 0.00 49 1006.8
20260504041225 57 194 0.0 0.0 0.00 0.00 0.00 49 1006.9
20260504040722 56 195 0.0 0.0 0.00 0.00 0.00 49 1006.8
20260504040219 57 196 0.0 0.0 0.00 0.00 0.00 48 1006.9
20260504035715 57 196 0.0 0.0 0.00 0.00 0.00 47 1007.2
20260504035213 57 196 0.0 0.0 0.00 0.00 0.00 48 1007.1
20260504034710 57 195 0.0 0.0 0.00 0.00 0.00 48 1007.1
20260504034207 57 198 0.0 0.0 0.00 0.00 0.00 46 1007.3
20260504033705 58 198 0.0 0.0 0.00 0.00 0.00 46 1007.5
20260504033202 58 198 0.0 0.0 0.00 0.00 0.00 46 1007.6
20260504032659 58 198 0.0 0.0 0.00 0.00 0.00 45 1007.3
20260504032156 59 199 0.0 0.0 0.00 0.00 0.00 44 1007.7
20260504031653 59 222 0.0 0.0 0.00 0.00 0.00 45 1007.5
20260504031149 59 221 0.0 0.0 0.00 0.00 0.00 44 1007.5
20260504030646 58 221 0.0 0.0 0.00 0.00 0.00 44 1007.7
20260504030143 59 221 0.0 0.0 0.00 0.00 0.00 44 1007.6
20260504025639 59 221 0.0 0.0 0.00 0.00 0.00 44 1007.5
20260504025136 59 222 0.0 0.0 0.00 0.00 0.00 43 1007.6
20260504024634 60 222 0.0 0.0 0.00 0.00 0.00 43 1007.6
20260504024130 59 222 0.0 0.0 0.00 0.00 0.00 43 1007.6
20260504023627 59 212 0.0 0.0 0.00 0.00 0.00 43 1007.6
20260504023123 59 212 0.0 0.0 0.00 0.00 0.00 43 1007.6
20260504022619 60 212 0.0 0.0 0.00 0.00 0.00 42 1007.5
20260504022115 60 212 0.0 0.0 0.00 0.00 0.00 42 1007.6
20260504021614 61 212 0.0 0.0 0.00 0.00 0.00 41 1007.3
20260504021110 62 212 0.0 0.0 0.00 0.00 0.00 41 1007.6
20260504020607 61 212 0.0 0.0 0.00 0.00 0.00 41 1007.4
20260504015559 61 212 0.0 0.0 0.00 0.00 0.00 41 1007.4
20260504015055 61 204 0.0 0.0 0.00 0.00 0.00 42 1007.3
20260504014552 61 204 0.0 0.0 0.00 0.00 0.00 42 1007.3
20260504014049 62 202 0.0 0.0 0.00 0.00 0.00 42 1007.5
20260504013546 63 219 0.0 0.0 0.00 0.00 0.00 41 1007.3
20260504013043 64 219 0.0 0.0 0.00 0.00 0.00 40 1007.4
20260504012541 65 219 0.0 0.0 0.00 0.00 0.00 38 1007.3
20260504012039 65 219 0.0 0.0 0.00 0.00 0.00 37 1007.3
20260504011535 66 219 0.0 0.0 0.00 0.00 0.00 36 1007.4
20260504011031 67 219 0.0 0.0 0.00 0.00 0.00 35 1007.3
20260504010527 67 219 0.0 0.0 0.00 0.00 0.00 35 1007.2
20260504010023 68 204 0.0 0.0 0.00 0.00 0.00 35 1007.5
20260504005520 68 212 0.0 0.0 0.00 0.00 0.00 34 1007.3
20260504005018 69 212 0.0 0.0 0.00 0.00 0.00 33 1007.3
20260504004515 70 201 0.0 0.0 0.00 0.00 0.00 31 1007.4
20260504004012 70 202 0.0 1.0 0.00 0.00 0.00 31 1007.4
20260504003508 70 175 0.0 1.0 0.00 0.00 0.00 30 1007.3
20260504003005 70 235 0.0 1.0 0.00 0.00 0.00 30 1007.3
20260504002502 71 271 2.0 2.0 0.00 0.00 0.00 29 1007.4
20260504001959 71 197 0.0 1.0 0.00 0.00 0.00 30 1007.4
20260504001457 71 208 0.0 1.0 0.00 0.00 0.00 30 1007.2
20260504000953 72 206 0.0 1.0 0.00 0.00 0.00 29 1007.2
20260504000450 72 195 0.0 1.0 0.00 0.00 0.00 29 1007.5
20260503235948 73 223 0.0 2.0 0.00 0.00 0.00 29 1007.3
20260503235445 73 271 2.0 3.0 0.00 0.00 0.00 28 1007.2
20260503234942 74 195 0.0 3.0 0.00 0.00 0.00 28 1007.4
20260503234440 75 34 1.0 8.0 0.00 0.00 0.00 27 1007.3
20260503233938 75 333 2.0 2.0 0.00 0.00 0.00 26 1007.4
20260503233434 76 230 1.0 3.0 0.00 0.00 0.00 25 1007.3
20260503232931 76 206 1.0 3.0 0.00 0.00 0.00 25 1007.4
20260503232428 76 231 2.0 4.0 0.00 0.00 0.00 25 1007.4
20260503231926 76 123 1.0 2.0 0.00 0.00 0.00 26 1007.4
20260503231423 76 327 0.0 3.0 0.00 0.00 0.00 25 1007.3
20260503230919 76 200 1.0 3.0 0.00 0.00 0.00 25 1007.3
20260503230415 77 186 0.0 3.0 0.00 0.00 0.00 26 1007.4
20260503225913 77 251 0.0 1.0 0.00 0.00 0.00 26 1007.4
20260503225409 77 284 2.0 3.0 0.00 0.00 0.00 26 1007.4
20260503224905 77 213 1.0 2.0 0.00 0.00 0.00 26 1007.5
20260503224402 76 273 4.0 6.0 0.00 0.00 0.00 26 1007.4
20260503223900 76 216 2.0 3.0 0.00 0.00 0.00 26 1007.5
20260503223358 76 178 1.0 7.0 0.00 0.00 0.00 27 1007.5
20260503222853 76 194 1.0 3.0 0.00 0.00 0.00 27 1007.6
20260503222352 75 224 2.0 6.0 0.00 0.00 0.00 27 1007.7
20260503221850 75 271 2.0 6.0 0.00 0.00 0.00 28 1007.6
20260503221348 75 310 1.0 3.0 0.00 0.00 0.00 28 1007.6
20260503220844 75 27 4.0 7.0 0.00 0.00 0.00 26 1007.7
20260503220341 75 226 1.0 4.0 0.00 0.00 0.00 27 1007.6
20260503215838 75 208 1.0 3.0 0.00 0.00 0.00 27 1007.7
20260503215335 75 231 3.0 7.0 0.00 0.00 0.00 27 1007.6
20260503214832 75 314 4.0 7.0 0.00 0.00 0.00 28 1007.8
20260503214330 75 285 6.0 10.0 0.00 0.00 0.00 27 1007.7
20260503213827 74 258 4.0 6.0 0.00 0.00 0.00 28 1007.9
20260503213325 74 215 2.0 6.0 0.00 0.00 0.00 26 1007.7
20260503212821 74 147 3.0 8.0 0.00 0.00 0.00 27 1007.7
20260503212319 74 241 2.0 6.0 0.00 0.00 0.00 29 1007.9
20260503211816 74 313 2.0 4.0 0.00 0.00 0.00 29 1007.8
20260503211313 75 354 3.0 4.0 0.00 0.00 0.00 28 1007.9
20260503210813 74 352 2.0 11.0 0.00 0.00 0.00 28 1008.0
20260503210311 75 245 3.0 7.0 0.00 0.00 0.00 27 1007.7
20260503205805 76 45 2.0 6.0 0.00 0.00 0.00 29 1007.9
20260503205304 75 300 3.0 4.0 0.00 0.00 0.00 28 1007.9
20260503204759 76 24 2.0 6.0 0.00 0.00 0.00 28 1007.8
20260503204257 76 284 4.0 7.0 0.00 0.00 0.00 27 1007.9
20260503203754 75 310 3.0 6.0 0.00 0.00 0.00 28 1007.9
20260503203251 74 228 2.0 4.0 0.00 0.00 0.00 28 1008.0
20260503202748 75 272 1.0 7.0 0.00 0.00 0.00 29 1008.2
20260503202246 75 269 2.0 8.0 0.00 0.00 0.00 30 1008.2
20260503201743 75 310 1.0 7.0 0.00 0.00 0.00 28 1008.2
20260503201241 76 222 5.0 8.0 0.00 0.00 0.00 27 1008.2
20260503200737 77 228 3.0 7.0 0.00 0.00 0.00 29 1008.1
20260503200233 76 212 1.0 7.0 0.00 0.00 0.00 30 1008.3
20260503195731 76 324 2.0 3.0 0.00 0.00 0.00 30 1008.1
20260503195227 76 281 5.0 8.0 0.00 0.00 0.00 29 1008.2
20260503194726 76 325 3.0 6.0 0.00 0.00 0.00 31 1008.4
20260503194220 76 325 6.0 9.0 0.00 0.00 0.00 29 1008.2
20260503193717 75 279 2.0 4.0 0.00 0.00 0.00 29 1008.4
20260503193213 75 338 3.0 4.0 0.00 0.00 0.00 30 1008.2
20260503192709 76 229 5.0 8.0 0.00 0.00 0.00 29 1008.5
20260503192204 75 297 4.0 8.0 0.00 0.00 0.00 31 1008.5
20260503191701 76 270 7.0 10.0 0.00 0.00 0.00 30 1008.5
20260503191158 75 308 2.0 7.0 0.00 0.00 0.00 31 1008.3
20260503190655 75 210 4.0 8.0 0.00 0.00 0.00 30 1008.4
20260503190152 75 199 1.0 2.0 0.00 0.00 0.00 33 1008.2
20260503185648 75 279 3.0 4.0 0.00 0.00 0.00 30 1008.5
20260503185144 74 207 2.0 4.0 0.00 0.00 0.00 31 1008.3
20260503184639 75 306 3.0 8.0 0.00 0.00 0.00 30 1008.7
20260503184136 75 247 2.0 4.0 0.00 0.00 0.00 30 1008.5
20260503183632 75 205 2.0 4.0 0.00 0.00 0.00 32 1008.5
20260503183130 75 344 5.0 9.0 0.00 0.00 0.00 31 1008.4
20260503182628 75 324 2.0 6.0 0.00 0.00 0.00 30 1008.6
20260503182126 75 219 7.0 10.0 0.00 0.00 0.00 30 1008.5
20260503181622 74 191 2.0 4.0 0.00 0.00 0.00 32 1008.5
20260503181119 73 275 1.0 6.0 0.00 0.00 0.00 33 1008.5
20260503180616 75 204 1.0 10.0 0.00 0.00 0.00 31 1008.7
20260503180114 75 287 4.0 9.0 0.00 0.00 0.00 32 1008.7
20260503175611 74 320 2.0 3.0 0.00 0.00 0.00 31 1008.5
20260503175108 74 245 3.0 7.0 0.00 0.00 0.00 32 1008.6
20260503174604 74 236 7.0 17.0 0.00 0.00 0.00 32 1008.4
20260503174101 74 307 2.0 8.0 0.00 0.00 0.00 33 1008.3
20260503173556 74 237 5.0 9.0 0.00 0.00 0.00 32 1008.4
20260503173053 73 288 4.0 7.0 0.00 0.00 0.00 33 1008.4
20260503172550 73 282 3.0 7.0 0.00 0.00 0.00 34 1008.4
20260503172047 73 199 5.0 7.0 0.00 0.00 0.00 34 1008.8
20260503171544 73 216 1.0 6.0 0.00 0.00 0.00 35 1008.7
20260503171041 73 196 3.0 7.0 0.00 0.00 0.00 36 1008.9
20260503170537 73 249 3.0 8.0 0.00 0.00 0.00 35 1009.0
20260503150930 66 228 4.0 7.0 0.00 0.00 0.00 43 1008.9
20260503150427 66 227 2.0 4.0 0.00 0.00 0.00 43 1008.8
20260503131320 56 200 1.0 3.0 0.00 0.00 0.00 52 1009.1
20260503130817 56 272 3.0 6.0 0.00 0.00 0.00 51 1009.2
20260503130315 56 248 5.0 7.0 0.00 0.00 0.00 51 1009.5